TimeMST,TemperatureF,Dew PointF,Humidity,Sea Level PressureIn,VisibilityMPH,Wind Direction,Wind SpeedMPH,Gust SpeedMPH,PrecipitationIn,Events,Conditions,WindDirDegrees,DateUTC
12:15 AM,41.0,28.4,61,30.13,10.0,East,6.9,-,N/A,,Clear,100,2013-02-14 07:15:00
12:35 AM,41.0,28.4,61,30.14,10.0,SE,3.5,-,N/A,,Clear,130,2013-02-14 07:35:00
12:55 AM,41.0,28.4,61,30.14,10.0,East,3.5,-,N/A,,Clear,100,2013-02-14 07:55:00
1:15 AM,37.4,28.4,70,30.13,10.0,ESE,4.6,-,N/A,,Clear,120,2013-02-14 08:15:00
1:35 AM,37.4,28.4,70,30.14,10.0,SE,5.8,-,N/A,,Clear,130,2013-02-14 08:35:00
1:55 AM,37.4,28.4,70,30.14,10.0,ESE,5.8,-,N/A,,Clear,120,2013-02-14 08:55:00
2:15 AM,37.4,28.4,70,30.14,10.0,SE,3.5,-,N/A,,Clear,140,2013-02-14 09:15:00
2:35 AM,37.4,28.4,70,30.13,10.0,ESE,5.8,-,N/A,,Clear,110,2013-02-14 09:35:00
2:55 AM,37.4,28.4,70,30.13,10.0,ESE,5.8,-,N/A,,Clear,120,2013-02-14 09:55:00
3:15 AM,37.4,30.2,75,30.13,10.0,East,6.9,-,N/A,,Clear,100,2013-02-14 10:15:00
3:35 AM,37.4,30.2,75,30.13,10.0,ESE,6.9,-,N/A,,Clear,120,2013-02-14 10:35:00
3:55 AM,37.4,28.4,70,30.13,10.0,ESE,6.9,-,N/A,,Clear,120,2013-02-14 10:55:00
4:15 AM,37.4,30.2,75,30.13,10.0,East,4.6,-,N/A,,Clear,100,2013-02-14 11:15:00
4:35 AM,35.6,30.2,81,30.13,10.0,East,3.5,-,N/A,,Clear,100,2013-02-14 11:35:00
4:55 AM,33.8,28.4,81,30.13,10.0,East,6.9,-,N/A,,Clear,100,2013-02-14 11:55:00
5:15 AM,33.8,28.4,81,30.13,10.0,East,8.1,-,N/A,,Clear,100,2013-02-14 12:15:00
6:47 AM,37.4,28.4,70,30.14,20.0,East,6.9,-,N/A,,Clear,80,2013-02-14 13:47:00
7:47 AM,37.4,28.4,70,30.15,45.0,ESE,5.8,-,N/A,,Clear,120,2013-02-14 14:47:00
8:47 AM,42.8,30.2,61,30.16,45.0,SE,4.6,-,N/A,,Clear,140,2013-02-14 15:47:00
9:47 AM,51.8,28.4,41,30.17,40.0,SE,4.6,-,N/A,,Clear,130,2013-02-14 16:47:00
10:47 AM,53.6,26.6,35,30.16,40.0,Calm,Calm,-,N/A,,Clear,0,2013-02-14 17:47:00
11:47 AM,57.2,37.4,48,30.15,35.0,Calm,Calm,-,N/A,,Clear,0,2013-02-14 18:47:00
1:47 PM,62.6,26.6,26,30.12,35.0,West,5.8,-,N/A,,Clear,270,2013-02-14 20:47:00
2:47 PM,62.6,23.0,22,30.09,35.0,Calm,Calm,-,N/A,,Clear,0,2013-02-14 21:47:00
3:48 PM,64.4,24.8,22,30.07,35.0,NW,4.6,-,N/A,,Clear,310,2013-02-14 22:48:00
4:47 PM,66.2,23.0,19,30.06,35.0,NNW,6.9,-,N/A,,Clear,330,2013-02-14 23:47:00
5:47 PM,64.4,24.8,22,30.05,35.0,WNW,4.6,-,N/A,,Partly Cloudy,300,2013-02-15 00:47:00
6:47 PM,62.6,26.6,26,30.07,20.0,NW,4.6,-,N/A,,Partly Cloudy,320,2013-02-15 01:47:00
7:47 PM,60.8,28.4,29,30.09,20.0,Calm,Calm,-,N/A,,Partly Cloudy,0,2013-02-15 02:47:00
7:55 PM,59.0,28.4,31,30.09,10.0,Calm,Calm,-,N/A,,Clear,0,2013-02-15 02:55:00
8:15 PM,55.4,28.4,36,30.09,10.0,Calm,Calm,-,N/A,,Clear,0,2013-02-15 03:15:00
8:35 PM,53.6,28.4,38,30.11,10.0,East,3.5,-,N/A,,Clear,100,2013-02-15 03:35:00
8:47 PM,53.6,28.4,38,30.11,20.0,Variable,3.5,-,N/A,,Partly Cloudy,0,2013-02-15 03:47:00
8:55 PM,51.8,30.2,44,30.12,10.0,ESE,6.9,-,N/A,,Clear,110,2013-02-15 03:55:00
9:15 PM,51.8,30.2,44,30.12,10.0,East,4.6,-,N/A,,Clear,90,2013-02-15 04:15:00
9:35 PM,51.8,32.0,47,30.13,10.0,Calm,Calm,-,N/A,,Clear,0,2013-02-15 04:35:00
9:55 PM,51.8,32.0,47,30.13,10.0,East,4.6,-,N/A,,Clear,90,2013-02-15 04:55:00
10:15 PM,48.2,32.0,54,30.14,10.0,East,4.6,-,N/A,,Clear,80,2013-02-15 05:15:00
10:35 PM,46.4,32.0,57,30.14,10.0,South,4.6,-,N/A,,Clear,180,2013-02-15 05:35:00
10:55 PM,51.8,32.0,47,30.14,10.0,Calm,Calm,-,N/A,,Clear,0,2013-02-15 05:55:00
11:15 PM,50.0,32.0,50,30.15,10.0,Calm,Calm,-,N/A,,Clear,0,2013-02-15 06:15:00
11:35 PM,50.0,32.0,50,30.15,10.0,Calm,Calm,-,N/A,,Clear,0,2013-02-15 06:35:00
11:55 PM,46.4,30.2,53,30.16,10.0,SE,3.5,-,N/A,,Clear,140,2013-02-15 06:55:00